Weather History for KDAN - March, 2014

Change the Weather History Date:

Monday, March 3, 2014

  Actual Average Record
Temperature  
Mean Temperature 38 °F 45 °F  
Max Temperature 58 °F 55 °F 80 °F (1976)
Min Temperature 17 °F 35 °F 11 °F (1980)
Degree Days  
Heating Degree Days 27 20  
Month to date heating degree days 69 62  
Since 1 July heating degree days 3074 3063  
Cooling Degree Days 0 0  
Month to date cooling degree days 0 0  
Year to date cooling degree days 0 0  
Moisture  
Dew Point 27 °F    
Average Humidity 77    
Maximum Humidity 92    
Minimum Humidity 62    
Precipitation  
Precipitation 0.45 in 0.10 in 2.21 in (1960)
Month to date precipitation 0.45 0.29  
Year to date precipitation 5.57 6.72  
Snow  
Snow 0.90 in - - ()
Month to date snowfall 0.9  
Since 1 July snowfall 8.8  
Snow Depth 1.00 in    
Sea Level Pressure  
Sea Level Pressure 30.07 in    
Wind  
Wind Speed 13 mph (NE)    
Max Wind Speed 28 mph    
Max Gust Speed 35 mph    
Visibility 6 miles    
Events Rain , Snow    
T = Trace of Precipitation, MM = Missing Value Source: NWS Daily Summary

Daily Weather History Graph

Daily Weather History Graph

Search for Another Location

Airport or City:

Trip Planner

Search our weather history database for the weather conditions in past years. The results will help you decide how hot, cold, wet, or windy it might be!

Date:

Astronomy

Mar. 03, 2014 Rise Set
Actual Time 6:45 AM EST 6:13 PM EST
Civil Twilight 6:19 AM EST 6:39 PM EST
Nautical Twilight 5:49 AM EST 7:09 PM EST
Astronomical Twilight 5:19 AM EST 7:39 PM EST
Moon 7:57 AM EST (3/3) 9:08 PM EST (3/3)
Length of Visible Light 12h 20m
Length of Day
11h 28m
Waxing Crescent, 8% of the Moon is Illuminated
Mar 3
Waxing Crescent
Mar 8
First Quarter
Mar 16
Full
Mar 23
Last Quarter
Mar 30
New

Hourly Weather History & Observations

Time (EST) Temp. Windchill Dew Point Humidity Pressure Visibility Wind Dir Wind Speed Gust Speed Precip Events Conditions
12:53 AM 57.0 °F - 44.1 °F 62% 29.83 in 10.0 mi Calm Calm - N/A   Clear
1:53 AM 54.0 °F - 44.1 °F 69% 29.81 in 10.0 mi Calm Calm - N/A   Clear
2:53 AM 54.0 °F - 44.1 °F 69% 29.80 in 10.0 mi SSE 3.5 mph - N/A   Scattered Clouds
3:53 AM 54.0 °F - 45.0 °F 72% 29.80 in 10.0 mi NE 11.5 mph - N/A   Overcast
4:43 AM 46.9 °F - 41.0 °F 80% 29.86 in 8.0 mi NE 15.0 mph - N/A   Overcast
4:53 AM 46.0 °F 38.8 °F 39.9 °F 79% 29.84 in 8.0 mi NE 18.4 mph 24.2 mph N/A   Overcast
5:09 AM 45.0 °F 37.4 °F 39.9 °F 82% 29.87 in 8.0 mi NE 18.4 mph - N/A   Overcast
5:26 AM 44.1 °F 36.5 °F 39.0 °F 82% 29.89 in 8.0 mi NE 17.3 mph - N/A   Overcast
5:53 AM 43.0 °F 36.8 °F 37.9 °F 82% 29.88 in 7.0 mi NE 11.5 mph - 0.00 in Rain Light Rain
6:35 AM 41.0 °F 33.1 °F 37.0 °F 86% 29.94 in 5.0 mi NE 15.0 mph 23.0 mph 0.03 in Rain Light Rain
6:53 AM 41.0 °F 33.5 °F 37.0 °F 86% 29.92 in 5.0 mi ENE 13.8 mph - 0.06 in Rain Light Rain
7:53 AM 39.0 °F 31.0 °F 36.0 °F 89% 29.92 in 5.0 mi NE 13.8 mph - 0.09 in Rain Light Rain
8:42 AM 36.0 °F 26.0 °F 33.1 °F 89% 29.98 in 5.0 mi ENE 17.3 mph 23.0 mph 0.14 in Rain Rain
8:53 AM 36.0 °F 25.6 °F 33.1 °F 89% 29.96 in 8.0 mi NE 18.4 mph 27.6 mph 0.16 in Rain Light Rain
9:00 AM 36.0 °F 26.7 °F 32.0 °F 86% 29.99 in 10.0 mi NE 15.0 mph 27.6 mph 0.01 in Rain Light Rain
9:08 AM 36.0 °F 24.7 °F 32.0 °F 86% 30.00 in 10.0 mi NE 21.9 mph - 0.02 in Rain Light Rain
9:53 AM 35.1 °F 25.9 °F 32.0 °F 89% 29.99 in 9.0 mi NE 13.8 mph - 0.08 in Rain Light Rain
10:00 AM 35.1 °F 24.8 °F 32.0 °F 89% 30.02 in 10.0 mi NE 17.3 mph 25.3 mph 0.00 in Rain Light Rain
10:24 AM 33.1 °F 21.9 °F 30.0 °F 89% 30.04 in 1.8 mi NNE 18.4 mph 24.2 mph 0.01 in Snow Light Snow
10:33 AM 33.1 °F 21.9 °F 28.9 °F 85% 30.06 in 1.2 mi NE 18.4 mph 27.6 mph 0.01 in Snow Light Snow
10:39 AM 33.1 °F 20.9 °F 28.0 °F 82% 30.05 in 3.0 mi NNE 21.9 mph 32.2 mph 0.01 in Snow Light Snow
10:53 AM 32.0 °F 18.9 °F 27.0 °F 82% 30.05 in 10.0 mi NE 24.2 mph 35.7 mph 0.01 in   Overcast
11:04 AM 32.0 °F 20.1 °F 26.1 °F 79% 30.07 in 10.0 mi NE 19.6 mph 32.2 mph N/A   Overcast
11:34 AM 30.9 °F 17.8 °F 26.1 °F 82% 30.08 in 10.0 mi ENE 23.0 mph 31.1 mph N/A   Overcast
11:44 AM 30.0 °F 16.3 °F 25.0 °F 82% 30.08 in 8.0 mi NE 24.2 mph 31.1 mph N/A   Overcast
11:53 AM 30.0 °F 16.0 °F 26.1 °F 85% 30.08 in 4.0 mi NE 25.3 mph 33.4 mph N/A   Overcast
12:16 PM 28.9 °F 14.5 °F 25.0 °F 85% 30.09 in 3.0 mi NE 25.3 mph 34.5 mph 0.00 in Rain Light Freezing Rain
12:29 PM 28.9 °F 15.4 °F 25.0 °F 85% 30.10 in 3.0 mi ENE 21.9 mph 32.2 mph 0.00 in Snow Light Snow
12:36 PM 28.0 °F 16.1 °F 24.1 °F 85% 30.10 in 4.0 mi NE 16.1 mph 32.2 mph 0.00 in Snow Light Snow
12:53 PM 28.0 °F 13.6 °F 23.0 °F 81% 30.09 in 5.0 mi NE 24.2 mph 32.2 mph 0.01 in Snow Light Snow
1:06 PM 28.0 °F 14.3 °F 23.0 °F 81% 30.10 in 6.0 mi NE 21.9 mph 33.4 mph 0.00 in   Haze
1:34 PM 27.0 °F 12.5 °F 23.0 °F 85% 30.11 in 7.0 mi NE 23.0 mph 28.8 mph 0.00 in Rain Light Freezing Rain
1:42 PM 27.0 °F 13.5 °F 23.0 °F 85% 30.10 in 10.0 mi NNE 19.6 mph 28.8 mph 0.00 in   Overcast
1:49 PM 28.4 °F 16.2 °F 23.0 °F 80% 30.11 in 8.0 mi NE 17.3 mph 28.8 mph 0.00 in Rain Light Freezing Rain
1:50 PM 28.0 °F 15.7 °F 23.0 °F 81% 30.10 in 8.0 mi NE 17.3 mph 25.3 mph 0.00 in Rain Light Freezing Rain
1:57 PM 27.0 °F 13.9 °F 23.0 °F 85% 30.11 in 7.0 mi NE 18.4 mph 24.2 mph 0.00 in   Overcast
2:12 PM 27.0 °F 14.3 °F 21.9 °F 81% 30.13 in 9.0 mi NNE 17.3 mph 25.3 mph 0.00 in   Overcast
2:26 PM 27.0 °F 14.3 °F 21.9 °F 81% 30.11 in 10.0 mi NNE 17.3 mph - 0.01 in   Overcast
2:53 PM 27.0 °F 14.7 °F 21.0 °F 78% 30.12 in 10.0 mi NE 16.1 mph 27.6 mph 0.01 in   Overcast
3:45 PM 26.1 °F 15.6 °F 21.0 °F 81% 30.15 in 2.5 mi NE 11.5 mph - 0.00 in Snow Light Snow
3:48 PM 26.6 °F 16.8 °F 21.2 °F 80% 30.16 in 1.8 mi NE 10.4 mph - 0.00 in Snow Light Snow
3:53 PM 25.0 °F 14.2 °F 21.0 °F 85% 30.15 in 1.0 mi NNE 11.5 mph - 0.01 in Snow Light Snow
3:57 PM 25.0 °F 13.1 °F 21.0 °F 85% 30.17 in 1.0 mi North 13.8 mph - 0.00 in Snow Light Snow
4:07 PM 25.0 °F 13.1 °F 19.9 °F 81% 30.17 in 1.5 mi NNE 13.8 mph - 0.00 in Snow Light Snow
4:14 PM 25.0 °F 11.7 °F 19.0 °F 78% 30.17 in 1.5 mi NNE 17.3 mph - 0.00 in Snow Light Snow
4:51 PM 24.8 °F 14.0 °F 19.4 °F 80% 30.18 in 2.0 mi NE 11.5 mph - 0.01 in Snow Light Snow
4:53 PM 25.0 °F 13.1 °F 19.9 °F 81% 30.18 in 2.0 mi NE 13.8 mph - 0.01 in Snow Light Snow
5:13 PM 25.0 °F 16.3 °F 19.9 °F 81% 30.19 in 1.5 mi NE 8.1 mph - 0.00 in Snow Light Snow
5:33 PM 24.1 °F 11.0 °F 19.0 °F 81% 30.20 in 0.8 mi NNE 16.1 mph 20.7 mph 0.01 in Snow Light Snow
5:53 PM 23.0 °F 10.6 °F 19.0 °F 85% 30.21 in 0.8 mi NNE 13.8 mph - 0.01 in Snow Light Snow
6:05 PM 24.1 °F 13.7 °F 19.9 °F 84% 30.21 in 2.0 mi NNE 10.4 mph - 0.00 in Snow Light Snow
6:12 PM 24.1 °F 12.5 °F 19.0 °F 81% 30.22 in 8.0 mi NNE 12.7 mph - 0.00 in Snow Light Snow
6:53 PM 23.0 °F 11.1 °F 17.1 °F 78% 30.24 in 10.0 mi NNE 12.7 mph - 0.00 in   Scattered Clouds
7:53 PM 23.0 °F 11.7 °F 16.0 °F 74% 30.26 in 10.0 mi NE 11.5 mph - N/A   Mostly Cloudy
8:53 PM 21.0 °F 12.4 °F 16.0 °F 81% 30.28 in 10.0 mi NE 6.9 mph - N/A   Clear
9:53 PM 19.9 °F 13.4 °F 15.1 °F 81% 30.30 in 10.0 mi NE 4.6 mph - N/A   Clear
10:53 PM 18.0 °F 8.7 °F 12.9 °F 81% 30.32 in 10.0 mi NE 6.9 mph - N/A   Clear
11:53 PM 17.1 °F 8.7 °F 12.9 °F 84% 30.30 in 10.0 mi ENE 5.8 mph - N/A   Clear